Location: Campo Alegre
(10.4289°N, 66.6519°W)
Time: 04:53:46
(UTC+00:00)

Envisat - Visible Passes

Search period start: 14 July 2024 00:00
Search period end: 24 July 2024 00:00
Orbit: 762 x 764 km, 98.3° (Epoch: 13 July)

Date Brightness Start Highest point End Pass type
(mag) Time Alt. Az. Time Alt. Az. Time Alt. Az.
14 Jul 5.2 07:20:54 10° NNE 07:22:19 19° NNE 07:22:19 19° NNE visible
15 Jul 6.0 06:44:16 10° NE 06:44:26 11° NE 06:44:26 11° NE visible
15 Jul 5.2 08:24:06 10° NW 08:24:35 12° NW 08:24:35 12° NW visible
16 Jul 5.0 07:45:15 10° N 07:46:42 19° N 07:46:42 19° N visible
17 Jul 5.5 07:07:50 10° NNE 07:08:49 16° NNE 07:08:49 16° NNE visible
18 Jul 5.2 08:10:10 10° NNW 08:11:05 14° NNW 08:11:05 14° NNW visible
19 Jul 5.2 07:31:55 10° N 07:33:12 18° N 07:33:12 18° N visible
20 Jul 5.8 06:54:54 10° NNE 06:55:20 12° NNE 06:55:20 12° NNE visible
21 Jul 5.1 07:56:31 10° NNW 07:57:35 16° NNW 07:57:35 16° NNW visible
22 Jul 5.5 07:18:44 10° NNE 07:19:42 16° NNE 07:19:42 16° NNE visible
23 Jul 5.4 08:21:49 10° NNW 08:21:57 10° NW 08:21:57 10° NW visible
